Regional Weather Roundup
Issued by NWS

Home | Current Version | Previous Version | Graphics & Text | Print | Product List | Glossary On
Versions: 1 2 3 4 5 6 7 8 9 10 11 12 13 14 15 16 17 18 19 20 21 22 23 24 25 26 27 28 29 30 31 32 33 34 35 36 37 38 39 40 41 42 43 44 45 46 47 48 49 50
000
ASUS45 KSLC 122310
RWRUT

UTAH REGIONAL WEATHER ROUNDUP
NATIONAL WEATHER SERVICE SALT LAKE CITY UT
500 PM MDT SAT JUL 12 2014

UTZ001>011-023>025-130000-

NORTHERN UTAH

CITY           SKY/WX    TMP DP  RH WIND       PRES   REMARKS
HILL AFB       NOT AVBL
LOGAN          SUNNY     92  47  21 VRB7      30.15F
OGDEN          SUNNY     93  51  23 NW6       30.15F HX  90
PROVO AIRPORT  NOT AVBL
SALT LAKE CITY MOSUNNY   94  50  22 NW8       30.12F HX  91
VERNAL         MOSUNNY   85  32  15 NW12      30.19S
WENDOVER       SUNNY     93  48  21 SE9       30.13F HX  90
HEBER CITY     MOSUNNY   86  50  28 W7        30.23S

$$

UTZ012>022-026-027-130000-

SOUTHERN UTAH

CITY           SKY/WX    TMP DP  RH WIND       PRES   REMARKS
BRYCE CANYON   MOSUNNY   85  38  18 W8        30.35F
CEDAR CITY     SUNNY     93  34  12 N7        30.19F
MILFORD        SUNNY     92  44  19 CALM      30.14F
MOAB/CYNLANDS  SUNNY     96  43  16 CALM      30.05F HX  92
PRICE          MOSUNNY   89  50  26 E13       30.20F
ST GEORGE      NOT AVBL

$$

REGIONAL REPORTS     COLORADO/ARIZONA

CITY           SKY/WX    TMP DP  RH WIND       PRES   REMARKS
CRAIG, CO      MOSUNNY   77  53  43 SW5       30.26F
GRAND JUNCTION MOSUNNY   93  48  21 E20       30.10S
RIFLE          MOSUNNY   91  50  24 VRB6      30.17F
MONTROSE       SUNNY     93  45  19 NW14      30.18F
CORTEZ         SUNNY     82  49  31 SE17      30.21F
PAGE, AZ       SUNNY     99  41  13 VRB6      30.06F HX  94
GRAND CANYON   MOSUNNY   85  41  21 N6        30.28F
KINGMAN        MOSUNNY  100  37  11 SW15G23   30.02F HX  95
FLAGSTAFF      MOSUNNY   84  45  25 NE10      30.29F

$$

REGIONAL REPORTS    NEVADA/IDAHO/WYOMING

CITY           SKY/WX    TMP DP  RH WIND       PRES   REMARKS
LAS VEGAS, NV  PTSUNNY  103  37  10 SW3       29.90F HX  97
ELY            MOSUNNY   89  42  19 S8        30.25F
ELKO           MOSUNNY   91  39  16 SW5       30.18F
POCATELLO, ID  MOSUNNY   91  51  25 VRB3      30.17F
BURLEY         SUNNY     90  47  22 VRB5      30.14F
EVANSTON, WY   MOSUNNY   80  45  28 NE5       30.36F
ROCK SPRINGS   MOSUNNY   82  43  25 S6        30.32F

$$



USA.gov is the U.S. government's official web portal to all federal, state and local government web resources and services.